QPF
0.01 0.01 0.02 0.02 0.02 0.02 0.02 0.01 0.01 0.01 0.01 0.01 0.03 0.04 0.04 0.04 0.03 0.03 0.03 0.03 0.03 0.03 0.03 0.02 0.01 0.01 0.01 0.01 0.02 0.02 0.02 0.02 0.02 0.02 0.01 0.02 0.04 0.04 0.03 0.04 0.05 0.04 0.05
0.01 0.01 0.02 0.03 0.03 0.02 0.02 0.02 0.01 0.01 0.01 0.01 0.02 0.02 0.03 0.03 0.04 0.04 0.03 0.02 0.03 0.03 0.03 0.02 0.02 0.01 0.01 0.01 0.01 0.02 0.02 0.02 0.02 0.02 0.02 0.02 0.04 0.04 0.03 0.03 0.04 0.04 0.05
0.01 0.01 0.02 0.03 0.03 0.03 0.02 0.02 0.01 0.01 0.01 0.02 0.02 0.02 0.02 0.02 0.03 0.04 0.05 0.03 0.02 0.03 0.02 0.02 0.02 0.02 0.01 0.01 0.01 0.01 0.02 0.02 0.02 0.02 0.02 0.02 0.02 0.03 0.04 0.03 0.03 0.04 0.04
0.01 0.01 0.02 0.02 0.03 0.03 0.02 0.02 0.02 0.02 0.02 0.02 0.02 0.02 0.01 0.01 0.02 0.03 0.03 0.04 0.03 0.02 0.02 0.03 0.02 0.02 0.01 0.01 0.01 0.01 0.01 0.02 0.02 0.02 0.02 0.02 0.02 0.02 0.03 0.02 0.02 0.03 0.03
0.01 0.01 0.01 0.02 0.03 0.02 0.02 0.02 0.02 0.02 0.02 0.02 0.03 0.02 0.02 0.01 0.02 0.02 0.02 0.02 0.03 0.03 0.02 0.02 0.03 0.03 0.02 0.01 0.01 0.01 0.02 0.02 0.02 0.02 0.02 0.02 0.02 0.01 0.01 0.02 0.02 0.02 0.02
0.01 0.02 0.02 0.02 0.02 0.02 0.02 0.02 0.02 0.02 0.02 0.02 0.02 0.02 0.02 0.02 0.02 0.02 0.02 0.02 0.02 0.03 0.03 0.03 0.02 0.03 0.02 0.02 0.02 0.02 0.02 0.02 0.02 0.02 0.02 0.02 0.02 0.01 0.01 0.01 0.02 0.02 0.01
0.01 0.02 0.02 0.02 0.03 0.03 0.02 0.02 0.02 0.02 0.01 0.02 0.02 0.02 0.02 0.02 0.02 0.02 0.01 0.01 0.02 0.03 0.03 0.03 0.02 0.02 0.02 0.02 0.02 0.02 0.02 0.02 0.02 0.01 0.01 0.01 0.02 0.01 0.01 0.01 0.02 0.02 0.01
0.01 0.01 0.02 0.02 0.02 0.03 0.03 0.03 0.02 0.02 0.01 0.01 0.02 0.01 0.01 0.01 0.01 0.02 0.01 0.01 0.01 0.02 0.02 0.02 0.01 0.02 0.02 0.02 0.02 0.01 0.01 0.01 0.01 0.01 0.01 0.01 0.01 0.01 0.01 0.01 0.02 0.02 0.02
0.01 0.01 0.01 0.02 0.02 0.02 0.03 0.03 0.03 0.02 0.01 0.01 0.01 0.01 0.01 0.01 0.01 0.01 0.01 0.01 0.01 0.01 0.01 0.01 0.01 0.01 0.01 0.01 0.02 0.02 0.01 0.01 0.01 0.01 0.01 0.01 0.02 0.02 0.02 0.02 0.03 0.04 0.03
0.01 0.01 0.01 0.02 0.02 0.02 0.02 0.03 0.03 0.03 0.02 0.01 0.01 0.01 0.01 0.01 0.01 0.01 0.01 0.01 0.01 0.01 0.01 0.01 0.01 0.01 0.01 0.01 0.02 0.02 0.02 0.01 0.01 0.01 0.01 0.01 0.02 0.02 0.02 0.02 0.02 0.03 0.02
0.01 0.01 0.01 0.02 0.02 0.02 0.02 0.02 0.02 0.03 0.02 0.01 0.01 0.01 0.01 0.01 0.01 0.01 0.01 0.01 0.01 0.01 0.01 0.00 0.00 0.01 0.01 0.01 0.01 0.01 0.02 0.02 0.02 0.02 0.02 0.02 0.03 0.03 0.03 0.02 0.02 0.02 0.02
0.01 0.02 0.02 0.02 0.02 0.02 0.02 0.01 0.02 0.02 0.01 0.01 0.01 0.01 0.01 0.01 0.01 0.01 0.01 0.01 0.01 0.01 0.01 0.00 0.00 0.01 0.01 0.01 0.01 0.01 0.01 0.02 0.02 0.03 0.04 0.04 0.04 0.04 0.03 0.03 0.02 0.03 0.03
0.01 0.02 0.02 0.02 0.02 0.02 0.01 0.01 0.01 0.01 0.01 0.01 0.01 0.01 0.01 0.01 0.01 0.01 0.01 0.01 0.01 0.01 0.01 0.00 0.00 0.01 0.01 0.01 0.01 0.01 0.02 0.02 0.02 0.03 0.03 0.04 0.03 0.03 0.03 0.03 0.03 0.03 0.04
0.01 0.02 0.02 0.02 0.02 0.02 0.01 0.01 0.01 0.01 0.01 0.01 0.01 0.01 0.01 0.01 0.01 0.01 0.01 0.01 0.01 0.01 0.01 0.00 0.00 0.00 0.01 0.01 0.01 0.01 0.02 0.02 0.02 0.03 0.03 0.03 0.03 0.03 0.03 0.03 0.03 0.04 0.05
0.02 0.02 0.02 0.02 0.02 0.02 0.02 0.02 0.02 0.02 0.02 0.02 0.02 0.02 0.02 0.01 0.01 0.01 0.01 0.01 0.01 0.01 0.01 0.00 0.00 0.01 0.01 0.01 0.01 0.01 0.02 0.02 0.02 0.02 0.02 0.02 0.02 0.02 0.03 0.03 0.03 0.03 0.04
0.02 0.02 0.02 0.02 0.02 0.02 0.01 0.01 0.01 0.01 0.02 0.02 0.02 0.03 0.02 0.02 0.02 0.02 0.01 0.01 0.01 0.01 0.01 0.01 0.01 0.01 0.01 0.01 0.01 0.01 0.01 0.01 0.02 0.01 0.01 0.01 0.01 0.02 0.02 0.03 0.02 0.03 0.03
0.02 0.01 0.01 0.01 0.01 0.02 0.01 0.01 0.02 0.02 0.01 0.02 0.03 0.04 0.04 0.03 0.02 0.02 0.02 0.02 0.01 0.01 0.01 0.01 0.01 0.01 0.01 0.01 0.01 0.01 0.01 0.01 0.01 0.01 0.01 0.01 0.01 0.01 0.02 0.02 0.02 0.02 0.02
0.01 0.01 0.01 0.01 0.01 0.02 0.02 0.02 0.02 0.02 0.01 0.02 0.03 0.03 0.04 0.03 0.02 0.02 0.02 0.02 0.02 0.02 0.01 0.01 0.02 0.01 0.01 0.01 0.01 0.01 0.01 0.01 0.01 0.01 0.01 0.01 0.01 0.01 0.02 0.02 0.02 0.02 0.02
0.01 0.01 0.01 0.02 0.02 0.02 0.02 0.02 0.02 0.02 0.01 0.02 0.02 0.02 0.02 0.02 0.02 0.01 0.01 0.01 0.02 0.02 0.02 0.02 0.02 0.02 0.02 0.01 0.01 0.01 0.01 0.01 0.01 0.01 0.01 0.01 0.01 0.01 0.01 0.02 0.02 0.02 0.02
0.01 0.01 0.01 0.01 0.01 0.01 0.01 0.02 0.02 0.02 0.02 0.02 0.02 0.02 0.02 0.01 0.01 0.02 0.01 0.02 0.02 0.02 0.02 0.02 0.01 0.02 0.02 0.02 0.01 0.01 0.01 0.01 0.01 0.01 0.01 0.01 0.01 0.01 0.01 0.01 0.01 0.02 0.02
0.01 0.01 0.02 0.01 0.01 0.01 0.01 0.01 0.01 0.01 0.01 0.01 0.02 0.02 0.02 0.02 0.02 0.02 0.02 0.02 0.02 0.02 0.02 0.02 0.01 0.01 0.01 0.01 0.01 0.01 0.01 0.01 0.01 0.01 0.01 0.01 0.01 0.01 0.01 0.02 0.01 0.01 0.02
0.02 0.01 0.01 0.01 0.01 0.01 0.01 0.01 0.01 0.01 0.01 0.01 0.01 0.01 0.01 0.01 0.02 0.02 0.02 0.02 0.02 0.02 0.02 0.02 0.02 0.01 0.01 0.01 0.01 0.01 0.01 0.01 0.01 0.01 0.01 0.01 0.01 0.01 0.01 0.02 0.02 0.02 0.02
0.01 0.01 0.01 0.01 0.01 0.01 0.01 0.01 0.01 0.01 0.01 0.01 0.01 0.01 0.01 0.01 0.01 0.01 0.02 0.02 0.02 0.02 0.01 0.01 0.01 0.01 0.01 0.01 0.01 0.01 0.01 0.01 0.01 0.01 0.01 0.01 0.01 0.01 0.01 0.01 0.02 0.02 0.02
0.01 0.01 0.01 0.01 0.01 0.01 0.01 0.01 0.01 0.01 0.01 0.01 0.01 0.01 0.01 0.01 0.01 0.01 0.01 0.01 0.02 0.01 0.01 0.01 0.01 0.01 0.01 0.01 0.01 0.01 0.01 0.01 0.01 0.01 0.01 0.01 0.01 0.01 0.01 0.01 0.01 0.02 0.02
0.01 0.01 0.01 0.01 0.01 0.01 0.01 0.01 0.01 0.01 0.01 0.01 0.01 0.01 0.01 0.01 0.01 0.01 0.01 0.01 0.01 0.01 0.01 0.01 0.01 0.01 0.01 0.01 0.01 0.01 0.01 0.01 0.01 0.01 0.01 0.01 0.01 0.01 0.01 0.02 0.02 0.01 0.01
0.01 0.01 0.01 0.01 0.01 0.01 0.01 0.01 0.01 0.01 0.01 0.01 0.01 0.01 0.01 0.01 0.01 0.01 0.01 0.01 0.01 0.01 0.01 0.01 0.01 0.01 0.01 0.01 0.01 0.01 0.01 0.01 0.01 0.01 0.01 0.01 0.01 0.01 0.01 0.01 0.01 0.01 0.01
MSLP
1027.44 1027.01 1026.50 1025.87 1025.11 1024.21 1023.19 1022.10 1021.01 1019.98 1019.07 1018.35 1017.84 1017.54 1017.41 1017.43 1017.51 1017.61 1017.66 1017.62 1017.47 1017.20 1016.83 1016.39 1015.93 1015.49 1015.10 1014.81 1014.64 1014.61 1014.72 1014.97 1015.34 1015.80 1016.34 1016.91 1017.47 1017.98 1018.42 1018.76 1018.99 1019.11 1019.12
1027.14 1026.73 1026.25 1025.67 1024.96 1024.11 1023.14 1022.10 1021.02 1019.99 1019.08 1018.32 1017.78 1017.44 1017.30 1017.30 1017.41 1017.56 1017.68 1017.73 1017.69 1017.53 1017.27 1016.94 1016.57 1016.19 1015.85 1015.58 1015.40 1015.34 1015.39 1015.57 1015.86 1016.23 1016.68 1017.18 1017.69 1018.18 1018.63 1019.01 1019.30 1019.50 1019.62
1026.86 1026.46 1026.02 1025.49 1024.84 1024.06 1023.16 1022.16 1021.13 1020.12 1019.20 1018.43 1017.84 1017.46 1017.28 1017.27 1017.37 1017.54 1017.71 1017.83 1017.88 1017.84 1017.70 1017.48 1017.22 1016.93 1016.66 1016.43 1016.27 1016.20 1016.22 1016.33 1016.54 1016.83 1017.19 1017.60 1018.05 1018.50 1018.93 1019.33 1019.66 1019.94 1020.13
1026.61 1026.24 1025.83 1025.35 1024.76 1024.05 1023.22 1022.30 1021.32 1020.35 1019.44 1018.65 1018.04 1017.62 1017.39 1017.34 1017.41 1017.58 1017.77 1017.95 1018.08 1018.13 1018.11 1018.01 1017.85 1017.67 1017.48 1017.32 1017.19 1017.13 1017.13 1017.20 1017.34 1017.55 1017.82 1018.15 1018.52 1018.91 1019.31 1019.70 1020.06 1020.37 1020.61
1026.40 1026.05 1025.67 1025.23 1024.70 1024.07 1023.32 1022.47 1021.56 1020.64 1019.76 1018.98 1018.35 1017.89 1017.62 1017.52 1017.55 1017.70 1017.89 1018.10 1018.28 1018.42 1018.48 1018.49 1018.45 1018.37 1018.27 1018.17 1018.10 1018.05 1018.05 1018.09 1018.18 1018.32 1018.52 1018.77 1019.06 1019.39 1019.74 1020.10 1020.46 1020.77 1021.04
1026.23 1025.89 1025.54 1025.14 1024.67 1024.10 1023.42 1022.66 1021.82 1020.97 1020.13 1019.37 1018.74 1018.26 1017.94 1017.79 1017.79 1017.89 1018.07 1018.28 1018.50 1018.68 1018.82 1018.91 1018.96 1018.97 1018.96 1018.93 1018.91 1018.89 1018.90 1018.92 1018.98 1019.07 1019.21 1019.39 1019.62 1019.89 1020.19 1020.51 1020.84 1021.14 1021.41
1026.08 1025.76 1025.42 1025.05 1024.62 1024.11 1023.51 1022.83 1022.08 1021.29 1020.52 1019.80 1019.18 1018.68 1018.34 1018.14 1018.09 1018.14 1018.29 1018.49 1018.70 1018.92 1019.10 1019.25 1019.37 1019.45 1019.51 1019.54 1019.57 1019.58 1019.61 1019.63 1019.68 1019.74 1019.84 1019.98 1020.16 1020.38 1020.63 1020.92 1021.21 1021.49 1021.74
1025.95 1025.63 1025.30 1024.95 1024.56 1024.10 1023.57 1022.96 1022.29 1021.59 1020.88 1020.21 1019.61 1019.12 1018.76 1018.52 1018.42 1018.43 1018.53 1018.70 1018.90 1019.11 1019.31 1019.50 1019.66 1019.79 1019.90 1019.99 1020.06 1020.11 1020.15 1020.20 1020.25 1020.31 1020.39 1020.51 1020.66 1020.85 1021.07 1021.32 1021.59 1021.84 1022.07
1025.80 1025.48 1025.16 1024.83 1024.47 1024.05 1023.58 1023.04 1022.45 1021.82 1021.19 1020.57 1020.01 1019.54 1019.16 1018.90 1018.75 1018.71 1018.77 1018.89 1019.06 1019.26 1019.46 1019.66 1019.85 1020.02 1020.17 1020.29 1020.40 1020.49 1020.57 1020.64 1020.71 1020.79 1020.88 1021.00 1021.14 1021.32 1021.53 1021.76 1022.00 1022.24 1022.44
1025.63 1025.31 1025.00 1024.67 1024.33 1023.95 1023.53 1023.05 1022.54 1021.98 1021.42 1020.86 1020.34 1019.88 1019.51 1019.23 1019.05 1018.97 1018.97 1019.06 1019.20 1019.37 1019.57 1019.78 1019.98 1020.17 1020.35 1020.51 1020.66 1020.79 1020.90 1021.01 1021.12 1021.22 1021.34 1021.48 1021.64 1021.82 1022.03 1022.25 1022.48 1022.69 1022.88
1025.42 1025.11 1024.80 1024.48 1024.16 1023.80 1023.42 1023.00 1022.54 1022.05 1021.55 1021.04 1020.56 1020.13 1019.76 1019.47 1019.27 1019.16 1019.13 1019.18 1019.30 1019.46 1019.66 1019.87 1020.09 1020.31 1020.52 1020.72 1020.90 1021.07 1021.23 1021.38 1021.53 1021.68 1021.83 1021.99 1022.17 1022.37 1022.58 1022.79 1023.00 1023.20 1023.37
1025.18 1024.88 1024.57 1024.27 1023.95 1023.61 1023.26 1022.87 1022.46 1022.02 1021.57 1021.11 1020.66 1020.25 1019.90 1019.61 1019.40 1019.27 1019.23 1019.27 1019.38 1019.54 1019.75 1019.98 1020.22 1020.48 1020.73 1020.97 1021.19 1021.41 1021.61 1021.81 1022.00 1022.18 1022.36 1022.55 1022.75 1022.95 1023.16 1023.36 1023.55 1023.73 1023.87
1024.92 1024.63 1024.33 1024.03 1023.71 1023.39 1023.05 1022.68 1022.30 1021.89 1021.47 1021.04 1020.62 1020.24 1019.90 1019.62 1019.42 1019.30 1019.26 1019.31 1019.43 1019.62 1019.85 1020.12 1020.41 1020.70 1020.99 1021.28 1021.56 1021.82 1022.06 1022.30 1022.52 1022.73 1022.94 1023.14 1023.34 1023.54 1023.73 1023.91 1024.08 1024.22 1024.33
1024.66 1024.38 1024.08 1023.78 1023.46 1023.13 1022.79 1022.43 1022.05 1021.65 1021.25 1020.84 1020.44 1020.08 1019.76 1019.50 1019.32 1019.22 1019.22 1019.30 1019.46 1019.68 1019.96 1020.28 1020.62 1020.97 1021.31 1021.65 1021.97 1022.27 1022.55 1022.81 1023.06 1023.28 1023.50 1023.70 1023.90 1024.08 1024.24 1024.39 1024.52 1024.62 1024.69
1024.40 1024.13 1023.83 1023.52 1023.19 1022.84 1022.48 1022.11 1021.72 1021.32 1020.91 1020.51 1020.13 1019.78 1019.48 1019.25 1019.11 1019.05 1019.09 1019.22 1019.44 1019.72 1020.06 1020.43 1020.83 1021.23 1021.63 1022.01 1022.36 1022.70 1023.00 1023.28 1023.54 1023.78 1023.99 1024.18 1024.35 1024.50 1024.64 1024.74 1024.83 1024.88 1024.91
1024.14 1023.87 1023.56 1023.23 1022.88 1022.51 1022.13 1021.73 1021.32 1020.90 1020.48 1020.08 1019.70 1019.37 1019.10 1018.90 1018.80 1018.80 1018.90 1019.09 1019.36 1019.71 1020.11 1020.54 1020.99 1021.44 1021.87 1022.28 1022.66 1023.02 1023.34 1023.63 1023.89 1024.12 1024.33 1024.50 1024.65 1024.78 1024.87 1024.94 1024.99 1025.00 1024.99
1023.87 1023.59 1023.27 1022.92 1022.54 1022.14 1021.73 1021.30 1020.86 1020.41 1019.98 1019.57 1019.20 1018.88 1018.64 1018.49 1018.44 1018.49 1018.65 1018.90 1019.24 1019.64 1020.09 1020.57 1021.05 1021.53 1021.98 1022.41 1022.81 1023.17 1023.50 1023.79 1024.05 1024.28 1024.47 1024.64 1024.78 1024.89 1024.96 1025.01 1025.02 1025.01 1024.97
1023.56 1023.26 1022.92 1022.55 1022.15 1021.72 1021.28 1020.82 1020.35 1019.88 1019.44 1019.02 1018.66 1018.37 1018.16 1018.05 1018.05 1018.16 1018.38 1018.69 1019.07 1019.52 1020.00 1020.50 1021.00 1021.49 1021.95 1022.37 1022.77 1023.12 1023.45 1023.74 1024.00 1024.24 1024.44 1024.61 1024.74 1024.85 1024.92 1024.96 1024.97 1024.95 1024.90
1023.19 1022.87 1022.51 1022.12 1021.70 1021.25 1020.78 1020.30 1019.81 1019.34 1018.88 1018.47 1018.13 1017.86 1017.69 1017.63 1017.68 1017.84 1018.11 1018.46 1018.89 1019.36 1019.86 1020.36 1020.86 1021.33 1021.77 1022.18 1022.56 1022.91 1023.23 1023.52 1023.79 1024.04 1024.25 1024.44 1024.60 1024.72 1024.80 1024.85 1024.87 1024.86 1024.81
1022.74 1022.40 1022.03 1021.62 1021.19 1020.73 1020.25 1019.76 1019.27 1018.79 1018.34 1017.95 1017.63 1017.40 1017.27 1017.26 1017.36 1017.57 1017.88 1018.27 1018.71 1019.19 1019.69 1020.18 1020.65 1021.10 1021.51 1021.90 1022.25 1022.59 1022.90 1023.20 1023.49 1023.75 1023.99 1024.21 1024.39 1024.54 1024.65 1024.72 1024.75 1024.75 1024.71
1022.23 1021.87 1021.48 1021.07 1020.64 1020.18 1019.71 1019.22 1018.74 1018.27 1017.84 1017.47 1017.19 1017.00 1016.92 1016.96 1017.11 1017.36 1017.71 1018.12 1018.58 1019.06 1019.54 1020.00 1020.44 1020.85 1021.23 1021.59 1021.93 1022.25 1022.56 1022.87 1023.17 1023.46 1023.73 1023.97 1024.18 1024.35 1024.48 1024.57 1024.61 1024.61 1024.58
1021.66 1021.29 1020.91 1020.50 1020.08 1019.64 1019.17 1018.70 1018.24 1017.79 1017.39 1017.06 1016.81 1016.67 1016.64 1016.73 1016.93 1017.22 1017.60 1018.04 1018.50 1018.97 1019.44 1019.87 1020.28 1020.66 1021.01 1021.34 1021.66 1021.98 1022.29 1022.61 1022.93 1023.23 1023.52 1023.78 1024.00 1024.18 1024.31 1024.39 1024.42 1024.41 1024.36
1021.09 1020.72 1020.34 1019.95 1019.54 1019.12 1018.67 1018.22 1017.78 1017.36 1016.99 1016.70 1016.50 1016.40 1016.42 1016.57 1016.81 1017.15 1017.56 1018.01 1018.49 1018.95 1019.40 1019.82 1020.21 1020.56 1020.89 1021.20 1021.51 1021.82 1022.14 1022.46 1022.79 1023.10 1023.39 1023.64 1023.85 1024.01 1024.11 1024.16 1024.15 1024.10 1024.00
1020.56 1020.20 1019.83 1019.46 1019.07 1018.66 1018.23 1017.80 1017.38 1016.98 1016.65 1016.39 1016.23 1016.18 1016.26 1016.45 1016.74 1017.12 1017.56 1018.04 1018.52 1018.99 1019.44 1019.85 1020.22 1020.56 1020.88 1021.19 1021.49 1021.80 1022.12 1022.44 1022.75 1023.05 1023.32 1023.54 1023.71 1023.81 1023.85 1023.83 1023.76 1023.64 1023.48
1020.11 1019.76 1019.41 1019.05 1018.67 1018.27 1017.86 1017.44 1017.03 1016.66 1016.35 1016.13 1016.01 1016.01 1016.13 1016.36 1016.70 1017.11 1017.59 1018.08 1018.59 1019.07 1019.52 1019.93 1020.30 1020.64 1020.96 1021.26 1021.57 1021.87 1022.19 1022.49 1022.79 1023.06 1023.28 1023.45 1023.55 1023.58 1023.53 1023.42 1023.26 1023.05 1022.81
1019.77 1019.43 1019.09 1018.74 1018.36 1017.97 1017.55 1017.14 1016.75 1016.39 1016.10 1015.91 1015.82 1015.86 1016.02 1016.30 1016.67 1017.12 1017.62 1018.14 1018.66 1019.16 1019.61 1020.03 1020.41 1020.75 1021.08 1021.39 1021.70 1022.00 1022.30 1022.59 1022.85 1023.07 1023.24 1023.34 1023.36 1023.30 1023.16 1022.96 1022.70 1022.41 1022.09
Thickness
5432 5433 5434 5435 5436 5437 5439 5441 5444 5446 5449 5451 5453 5455 5456 5458 5459 5460 5461 5462 5463 5464 5465 5467 5468 5470 5472 5474 5476 5478 5479 5480 5480 5483 5485 5486 5488 5489 5491 5492 5493 5495 5496
5421 5422 5424 5425 5426 5427 5429 5431 5434 5436 5439 5441 5443 5445 5446 5448 5449 5450 5451 5452 5453 5454 5455 5456 5457 5459 5461 5462 5464 5466 5467 5469 5469 5470 5472 5473 5475 5477 5478 5480 5481 5482 5483
5412 5413 5414 5415 5416 5418 5420 5422 5424 5426 5429 5431 5433 5435 5437 5439 5440 5441 5441 5442 5443 5444 5445 5446 5447 5449 5450 5451 5453 5454 5455 5457 5457 5458 5459 5460 5461 5463 5465 5467 5469 5469 5471
5403 5403 5404 5406 5407 5409 5410 5412 5414 5417 5420 5422 5424 5426 5428 5429 5430 5431 5432 5432 5434 5434 5435 5436 5437 5439 5439 5439 5441 5442 5442 5443 5444 5445 5446 5447 5448 5450 5452 5453 5454 5456 5458
5393 5394 5395 5397 5399 5400 5401 5403 5405 5407 5410 5412 5414 5416 5418 5420 5421 5422 5422 5423 5423 5424 5425 5426 5427 5428 5428 5429 5430 5430 5430 5430 5431 5432 5433 5434 5435 5436 5437 5439 5441 5443 5444
5384 5384 5386 5388 5389 5391 5392 5394 5396 5398 5400 5403 5405 5407 5408 5410 5411 5413 5413 5413 5414 5414 5415 5415 5416 5417 5418 5419 5419 5420 5419 5419 5419 5419 5420 5420 5422 5423 5424 5425 5426 5427 5429
5375 5375 5377 5379 5380 5381 5383 5385 5387 5389 5391 5394 5396 5398 5399 5401 5402 5403 5404 5404 5404 5404 5404 5404 5406 5406 5406 5407 5407 5408 5408 5407 5407 5407 5407 5408 5409 5410 5411 5412 5412 5412 5414
5367 5368 5369 5370 5371 5373 5374 5376 5378 5380 5382 5384 5387 5388 5389 5391 5393 5394 5395 5394 5394 5394 5394 5395 5395 5395 5395 5395 5396 5396 5395 5396 5396 5396 5397 5398 5398 5398 5399 5399 5400 5400 5402
5360 5361 5361 5362 5363 5364 5366 5368 5370 5372 5373 5376 5378 5379 5380 5381 5383 5385 5385 5384 5384 5384 5385 5385 5385 5385 5385 5385 5385 5384 5384 5384 5385 5386 5387 5387 5388 5389 5389 5388 5388 5388 5389
5353 5354 5354 5355 5356 5357 5358 5360 5362 5364 5365 5368 5369 5371 5372 5373 5374 5375 5376 5376 5375 5375 5375 5375 5376 5376 5376 5375 5374 5374 5373 5374 5375 5375 5376 5377 5377 5378 5379 5379 5379 5379 5378
5346 5347 5347 5348 5349 5350 5352 5353 5355 5356 5358 5359 5361 5362 5363 5365 5366 5366 5367 5367 5366 5366 5366 5366 5366 5367 5367 5367 5366 5365 5365 5366 5365 5365 5366 5367 5368 5369 5370 5370 5371 5370 5369
5339 5340 5341 5341 5342 5344 5344 5346 5347 5348 5349 5350 5352 5352 5353 5355 5356 5357 5359 5359 5359 5357 5357 5357 5357 5358 5358 5358 5357 5358 5358 5357 5357 5357 5357 5358 5359 5360 5360 5361 5361 5360 5360
5333 5333 5334 5335 5335 5336 5337 5338 5338 5339 5340 5342 5343 5343 5344 5346 5347 5349 5350 5350 5351 5350 5349 5349 5349 5349 5349 5349 5349 5349 5349 5348 5348 5348 5348 5349 5350 5350 5351 5351 5352 5352 5351
5327 5327 5328 5328 5328 5329 5329 5330 5331 5331 5332 5334 5335 5335 5335 5337 5338 5339 5341 5341 5342 5342 5341 5341 5341 5341 5340 5341 5340 5340 5340 5340 5340 5340 5340 5340 5341 5342 5342 5342 5342 5343 5343
5321 5322 5322 5322 5322 5322 5322 5322 5323 5324 5325 5326 5327 5327 5327 5328 5330 5332 5332 5333 5333 5334 5334 5333 5332 5331 5331 5331 5331 5331 5331 5331 5331 5331 5332 5332 5333 5333 5333 5333 5334 5334 5334
5316 5316 5316 5316 5316 5316 5316 5316 5316 5317 5319 5319 5320 5320 5321 5322 5323 5325 5326 5327 5327 5327 5326 5325 5323 5323 5322 5322 5322 5322 5323 5323 5323 5323 5324 5324 5324 5325 5325 5325 5326 5326 5326
5310 5310 5311 5310 5310 5310 5310 5310 5310 5311 5313 5314 5314 5315 5316 5317 5317 5318 5319 5320 5321 5320 5318 5317 5316 5316 5315 5315 5314 5314 5314 5315 5315 5316 5316 5317 5317 5317 5317 5318 5319 5319 5319
5306 5306 5306 5305 5304 5303 5303 5304 5305 5306 5307 5307 5308 5309 5310 5311 5311 5312 5313 5314 5313 5312 5311 5310 5310 5309 5308 5308 5308 5308 5307 5307 5308 5308 5309 5309 5310 5310 5311 5311 5312 5312 5312
5302 5301 5301 5300 5299 5299 5299 5300 5300 5301 5301 5301 5301 5302 5304 5304 5305 5305 5306 5305 5304 5304 5304 5304 5303 5303 5303 5302 5302 5302 5302 5302 5302 5302 5303 5303 5304 5304 5305 5305 5305 5306 5306
5299 5299 5298 5297 5296 5295 5295 5295 5295 5295 5295 5295 5295 5296 5297 5297 5297 5298 5298 5298 5298 5298 5298 5297 5297 5297 5297 5297 5297 5297 5297 5297 5297 5297 5297 5298 5299 5299 5299 5300 5300 5300 5300
5295 5295 5295 5293 5292 5292 5292 5291 5290 5290 5289 5289 5290 5291 5293 5292 5291 5291 5292 5292 5292 5292 5292 5292 5292 5292 5292 5292 5292 5292 5292 5292 5292 5293 5293 5294 5294 5294 5295 5295 5295 5295 5295
5292 5291 5290 5289 5289 5288 5287 5286 5286 5285 5285 5285 5285 5286 5288 5287 5286 5287 5287 5287 5287 5287 5287 5287 5288 5288 5288 5289 5289 5289 5289 5289 5289 5289 5290 5290 5290 5291 5291 5291 5291 5292 5292
5288 5287 5286 5285 5284 5284 5283 5282 5282 5281 5281 5281 5281 5282 5282 5282 5282 5282 5282 5282 5283 5283 5283 5284 5284 5284 5285 5285 5286 5286 5286 5286 5286 5286 5287 5288 5288 5289 5289 5289 5289 5289 5290
5284 5283 5281 5280 5279 5279 5278 5277 5277 5277 5277 5277 5277 5277 5278 5278 5278 5278 5278 5278 5279 5279 5280 5280 5280 5281 5281 5282 5282 5283 5283 5284 5284 5285 5286 5286 5287 5287 5287 5287 5287 5287 5287
5280 5278 5277 5275 5275 5274 5273 5273 5272 5272 5273 5273 5273 5273 5273 5274 5274 5274 5275 5275 5276 5276 5277 5277 5277 5278 5279 5280 5280 5281 5282 5283 5283 5284 5285 5285 5285 5285 5285 5285 5285 5285 5285
5276 5274 5273 5271 5270 5269 5269 5268 5268 5268 5268 5269 5269 5269 5270 5270 5271 5272 5272 5272 5273 5273 5274 5275 5275 5276 5277 5277 5278 5279 5280 5282 5283 5283 5283 5283 5283 5283 5283 5283 5284 5284 5283